Flag for Italy Weather past 2 weeks in Trieste, Italy

Now
81 °F

Passing clouds.


Feels Like: 86 °F
Forecast: 67 / 91 °F
Wind: No wind

Location: Trieste

Current Time: Aug 29, 2015 at 8:01:00 PM

Latest Report: Aug 29, 2015 at 7:00 PM


Visibility: 6 mi

Pressure: 30.13 "Hg

Humidity: 81%

Dew point: 74 °F

Location of TriesteLocation

Historic Weather in Trieste — Graph

°F

Trieste temperature yesterday

Maximum temperature yesterday: 80 °F (at 5:00 PM)
Minimum temperature yesterday: 66 °F (at 5:00 AM)
Average temperature yesterday: 74 °F

Past Weeks' High & Low Weather Summary

 TemperatureHumidityPressure
High89 °F (Aug 14, 6:00 PM)100% (Aug 16, 12:00 AM)30.18 "Hg (Aug 16, 12:00 AM)
Low63 °F (Aug 20, 4:00 AM)33% (Aug 22, 3:00 PM)29.72 "Hg (Aug 15, 8:00 PM)
Average73 °F70%29.95 "Hg
* Reported Aug 14 6:00 PM — Aug 29 6:00 PM, Trieste, Weather by CustomWeather, © 2015

Note: Actual official high and low records may vary slightly from our data, if they occured in-between our weather recording intervals... More about our weather records

Advertising

Trieste weather history for previous 24 hours

 ConditionsComfort  
Time TempWeatherWind HumidityBarometerVisibility
6:00 PM
Sat, Aug 29
81 °FSunny.No wind80%30.13 "Hg6 mi
5:00 PM82 °FSunny.No wind77%30.14 "Hg6 mi
4:00 PM83 °FSunny.No wind70%30.15 "Hg6 mi
2:00 PM83 °FSunny.No wind67%30.17 "Hg6 mi
1:00 PM81 °FSunny.1 mph69%30.17 "Hg12 mi
11:00 AM76 °FSunny.No wind78%30.18 "Hg12 mi
10:00 AM76 °FSunny.No wind77%30.17 "Hg12 mi
9:00 AM73 °FSunny.No wind82%30.16 "Hg12 mi
8:00 AM69 °FSunny.No wind92%30.15 "Hg6 mi
7:00 AM68 °FSunny.1 mph91%30.15 "Hg6 mi
6:00 AM68 °FClear.1 mph92%30.15 "Hg12 mi
4:00 AM68 °FClear.1 mph90%30.15 "Hg12 mi
3:00 AM70 °FClear.2 mph88%30.15 "Hg12 mi
2:00 AM70 °FClear.1 mph87%30.15 "Hg12 mi
1:00 AM69 °FClear.No wind86%30.14 "Hg12 mi
12:00 AM71 °FClear.No wind82%30.15 "Hg12 mi
9:00 PM
Fri, Aug 28
73 °FPassing clouds.No wind69%30.12 "Hg12 mi
8:00 PM76 °FPassing clouds.No wind65%30.11 "Hg12 mi
Weather by CustomWeather, © 2015

See weather overviewHow to use our weather pages